TimeEET,TemperatureF,Dew PointF,Humidity,Sea Level PressureIn,VisibilityMPH,Wind Direction,Wind SpeedMPH,Gust SpeedMPH,PrecipitationIn,Events,Conditions,WindDirDegrees,DateUTC
12:00 AM,77.0,57.2,50,29.89,-9999.0,Calm,Calm,-,N/A,,Clear,0,2012-10-08 22:00:00
1:00 AM,77.0,57.2,50,29.86,-9999.0,SE,4.6,-,N/A,,Clear,130,2012-10-08 23:00:00
2:00 AM,75,57,43,29.86,6,Calm,Calm,,,,,,2012-10-09 00:00:00
2:00 AM,75.2,57.2,53,29.86,-9999.0,Calm,Calm,-,N/A,,Clear,0,2012-10-09 00:00:00
3:00 AM,75.2,57.2,53,29.86,-9999.0,SE,1.2,-,N/A,,Clear,130,2012-10-09 01:00:00
4:00 AM,75.2,55.4,50,29.86,-9999.0,Calm,Calm,-,N/A,,Clear,0,2012-10-09 02:00:00
5:00 AM,71.6,53.6,53,29.86,-9999.0,South,2.3,-,N/A,,Clear,180,2012-10-09 03:00:00
6:00 AM,68.0,53.6,60,29.89,-9999.0,Calm,Calm,-,N/A,,Clear,0,2012-10-09 04:00:00
7:00 AM,71.6,53.6,53,29.89,-9999.0,Calm,Calm,-,N/A,,Clear,0,2012-10-09 05:00:00
8:00 AM,79,57,36,29.90,6,Calm,Calm,,,,Clear,,2012-10-09 06:00:00
8:00 AM,78.8,57.2,47,29.89,-9999.0,Calm,Calm,-,N/A,,Clear,0,2012-10-09 06:00:00
9:00 AM,82.4,60.8,48,29.92,-9999.0,WNW,2.3,-,N/A,,Clear,290,2012-10-09 07:00:00
10:00 AM,86.0,59.0,40,29.89,-9999.0,North,3.5,-,N/A,,Clear,360,2012-10-09 08:00:00
11:00 AM,87.8,59.0,38,29.89,-9999.0,NNE,5.8,-,N/A,,Clear,30,2012-10-09 09:00:00
12:00 PM,89.6,57.2,33,29.86,-9999.0,NE,5.8,-,N/A,,Clear,40,2012-10-09 10:00:00
1:00 PM,91.4,57.2,31,29.83,-9999.0,North,3.5,-,N/A,,Clear,10,2012-10-09 11:00:00
2:00 PM,92,56,21,29.81,6,North,3.5,,,,Partly Cloudy,350,2012-10-09 12:00:00
2:00 PM,93.2,57.2,30,29.83,-9999.0,North,3.5,-,N/A,,Clear,350,2012-10-09 12:00:00
3:00 PM,91.4,57.2,31,29.80,-9999.0,North,2.3,-,N/A,,Clear,360,2012-10-09 13:00:00
4:00 PM,91.4,55.4,29,29.80,-9999.0,North,2.3,-,N/A,,Clear,360,2012-10-09 14:00:00
5:00 PM,89.6,57.2,33,29.80,-9999.0,NW,2.3,-,N/A,,Clear,310,2012-10-09 15:00:00
6:00 PM,86.0,57.2,37,29.80,-9999.0,West,2.3,-,N/A,,Clear,280,2012-10-09 16:00:00
7:00 PM,84.2,57.2,40,29.80,-9999.0,West,2.3,-,N/A,,Clear,280,2012-10-09 17:00:00
8:00 PM,82,56,31,29.83,6,Calm,Calm,,,,Clear,,2012-10-09 18:00:00
8:00 PM,82.4,55.4,39,29.83,-9999.0,Calm,Calm,-,N/A,,Clear,0,2012-10-09 18:00:00
9:00 PM,80.6,55.4,42,29.83,-9999.0,SW,2.3,-,N/A,,Clear,220,2012-10-09 19:00:00
10:00 PM,78.8,55.4,44,29.83,-9999.0,SE,3.5,-,N/A,,Clear,140,2012-10-09 20:00:00
11:00 PM,78.8,55.4,44,29.83,-9999.0,SSE,4.6,-,N/A,,Clear,160,2012-10-09 21:00:00